国际通讯卫星 17 星 (INTELSAT 17 (IS-17))

导读 | 星芒AI

INTELSAT 17(IS-17)是由波音公司制造的通信卫星,于2005年10月18日发射,由国际通信卫星组织(Intelsat)运营。该卫星位于东经178度轨道位置,主要为亚太地区提供C波段和Ku波段的广播和通信服务。IS-17广泛用于电视广播、企业通信和政府应用,覆盖范围包括澳大利亚、东南亚、东亚及太平洋岛屿。其高容量和灵活性使其成为区域通信基础设施的重要组成部分。

基本信息
目录编号:
37238
目录名称:
INTELSAT 17
国际标识:
2010-065B
轨道中心:
EARTH
卫星名称:
国际通讯卫星 17 星
卫星全名:
国际通讯卫星 17 星 (INTELSAT 17 (IS-17))
卫星状态:
在轨 (已飞行5498 天)
发射日期:
2010-11-26 UTC
国别 :
(ITSO)
星等 :
--
轨道信息
数据来源 国际轨道数据 AOE轨道数据
星历时间 2025-12-14T13:10:22+0800
1天前
查看轨道信息
2025-12-14T08:00:00+0800
1天前
查看轨道信息
半长轴 42164.756km 42165.065km
偏心率 0.0002624 0.0002695
轨道倾角 0.013° 0.001°
近地点辐角 175.639° 303.387°
升交点赤经 104.478° 313.011°
平近点角 306.616° 252.531°
近地点 35775.556km 35775.566km
远地点 35797.686km 35798.294km
周期 1436.098分钟 1436.114分钟
每日圈数 1.002717 1.002706
详细信息
卫星平台:
STAR-2
平衡模式:
三轴稳定
覆盖范围:
全球
运营商:
国际卫星通信公司
运营商所在国:
美国
制造商(研发单位):
劳拉空间系统公司
制造商所在国:
美国
使用方式:
暂无
卫星简介
从1965年4月至1984年3月,国际通信卫星组织发射了5代、6种不同性能的卫星共计35颗,除6颗卫星因运载火箭和远地点发动机故障而发射失败外,其余29颗卫星均被送到了预定的静止轨道位置。1984年8月前后,国际通信卫星组织利用部署在大西洋、太平洋、印度洋上空的15颗国际通信卫星,为遍布世界各地170多个国家或地区提供电话、电传、电报、电视和数据传输等电信业务;该卫星仍在工作。
2D轨道图
3D轨道图
轨道高度分析图
轨道倾角分析图
轨道综合分析图
查看轨道综合分析图